Time,TemperatureF,DewpointF,PressureIn,WindDirection,WindDirectionDegrees,WindSpeedMPH,WindSpeedGustMPH,Humidity,HourlyPrecipIn,Conditions,Clouds,dailyrainin,SoftwareType,DateUTC
2013-04-21 00:03:00,64.0,61.0,30.13,ENE,65,4.0,9.0,91,99.99,,,-99.99,,2013-04-21 04:03:00,
2013-04-21 00:12:00,64.0,61.0,30.14,North,6,7.0,12.0,91,99.99,,,-99.99,,2013-04-21 04:12:00,
2013-04-21 00:23:00,64.0,61.0,30.14,North,6,7.0,12.0,91,99.99,,,-99.99,,2013-04-21 04:23:00,
2013-04-21 00:33:00,64.0,62.0,30.13,NNE,13,7.0,12.0,92,99.99,,,-99.99,,2013-04-21 04:33:00,
2013-04-21 00:42:00,64.0,62.0,30.13,NNE,13,7.0,12.0,92,99.99,,,-99.99,,2013-04-21 04:42:00,
2013-04-21 00:53:00,64.0,62.0,30.14,NNE,13,6.0,9.0,93,99.99,,,-99.99,,2013-04-21 04:53:00,
2013-04-21 01:02:00,63.0,61.0,30.13,NNE,15,7.0,10.0,92,99.99,,,-99.99,,2013-04-21 05:02:00,
2013-04-21 01:12:00,63.0,61.0,30.13,NNE,15,7.0,10.0,92,99.99,,,-99.99,,2013-04-21 05:12:00,
2013-04-21 01:22:00,64.0,61.0,30.12,North,8,6.0,10.0,91,99.99,,,-99.99,,2013-04-21 05:22:00,
2013-04-21 01:32:00,64.0,61.0,30.12,NNE,13,5.0,9.0,91,99.99,,,-99.99,,2013-04-21 05:32:00,
2013-04-21 01:42:00,64.0,61.0,30.12,NNE,13,5.0,9.0,91,99.99,,,-99.99,,2013-04-21 05:42:00,
2013-04-21 01:52:00,64.0,61.0,30.12,NNE,14,4.0,6.0,91,99.99,,,-99.99,,2013-04-21 05:52:00,
2013-04-21 02:01:00,64.0,61.0,30.11,NE,41,5.0,9.0,90,99.99,,,-99.99,,2013-04-21 06:01:00,
2013-04-21 02:12:00,64.0,61.0,30.11,North,11,3.0,5.0,90,99.99,,,-99.99,,2013-04-21 06:12:00,
2013-04-21 02:22:00,64.0,61.0,30.11,North,11,3.0,5.0,90,99.99,,,-99.99,,2013-04-21 06:22:00,
2013-04-21 02:32:00,64.0,61.0,30.10,NE,56,3.0,8.0,90,99.99,,,-99.99,,2013-04-21 06:32:00,
2013-04-21 02:42:00,64.0,61.0,30.10,NE,56,3.0,8.0,90,99.99,,,-99.99,,2013-04-21 06:42:00,
2013-04-21 02:52:00,63.0,62.0,30.11,North,0,4.0,7.0,96,99.99,,,-99.99,,2013-04-21 06:52:00,
2013-04-21 03:01:00,63.0,62.0,30.08,ENE,69,1.0,3.0,98,99.99,,,-99.99,,2013-04-21 07:01:00,
2013-04-21 03:12:00,63.0,63.0,30.08,NNE,17,2.0,5.0,99,99.99,,,-99.99,,2013-04-21 07:12:00,
2013-04-21 03:21:00,63.0,63.0,30.08,NNE,17,2.0,5.0,99,99.99,,,-99.99,,2013-04-21 07:21:00,
2013-04-21 03:32:00,62.0,62.0,30.08,NNE,15,3.0,5.0,100,99.99,,,-99.99,,2013-04-21 07:32:00,
2013-04-21 03:42:00,62.0,62.0,30.08,NNE,15,3.0,5.0,100,99.99,,,-99.99,,2013-04-21 07:42:00,
2013-04-21 03:52:00,62.0,62.0,30.07,North,3,1.0,4.0,100,99.99,,,-99.99,,2013-04-21 07:52:00,
2013-04-21 04:01:00,62.0,62.0,30.07,North,10,4.0,5.0,100,99.99,,,-99.99,,2013-04-21 08:01:00,
2013-04-21 04:12:00,62.0,62.0,30.07,North,4,3.0,5.0,100,99.99,,,-99.99,,2013-04-21 08:12:00,
2013-04-21 04:21:00,62.0,62.0,30.07,North,4,3.0,5.0,100,99.99,,,-99.99,,2013-04-21 08:21:00,
2013-04-21 04:32:00,62.0,62.0,30.08,NNE,20,3.0,6.0,100,99.99,,,-99.99,,2013-04-21 08:32:00,
2013-04-21 04:42:00,62.0,62.0,30.08,NNE,20,3.0,6.0,100,99.99,,,-99.99,,2013-04-21 08:42:00,
2013-04-21 04:52:00,62.0,62.0,30.08,North,1,1.0,4.0,100,99.99,,,-99.99,,2013-04-21 08:52:00,
2013-04-21 05:02:00,63.0,63.0,30.08,NNE,13,3.0,6.0,100,99.99,,,-99.99,,2013-04-21 09:02:00,
2013-04-21 05:12:00,63.0,63.0,30.07,NNE,14,5.0,9.0,100,99.99,,,-99.99,,2013-04-21 09:12:00,
2013-04-21 05:21:00,63.0,63.0,30.07,NNE,14,5.0,9.0,100,99.99,,,-99.99,,2013-04-21 09:21:00,
2013-04-21 05:32:00,63.0,63.0,30.07,NE,51,4.0,6.0,100,99.99,,,-99.99,,2013-04-21 09:32:00,
2013-04-21 05:43:00,63.0,63.0,30.07,NE,51,4.0,6.0,100,99.99,,,-99.99,,2013-04-21 09:43:00,
2013-04-21 05:53:00,63.0,63.0,30.06,NNE,14,5.0,8.0,100,99.99,,,-99.99,,2013-04-21 09:53:00,
2013-04-21 06:03:00,63.0,63.0,30.06,NNE,17,5.0,9.0,100,99.99,,,-99.99,,2013-04-21 10:03:00,
2013-04-21 06:12:00,63.0,63.0,30.08,North,3,4.0,8.0,100,99.99,,,-99.99,,2013-04-21 10:12:00,
2013-04-21 06:22:00,63.0,63.0,30.08,North,3,4.0,8.0,100,99.99,,,-99.99,,2013-04-21 10:22:00,
2013-04-21 06:32:00,64.0,64.0,30.08,North,11,5.0,10.0,100,99.99,,,-99.99,,2013-04-21 10:32:00,
2013-04-21 06:42:00,64.0,64.0,30.08,North,11,5.0,10.0,100,99.99,,,-99.99,,2013-04-21 10:42:00,
2013-04-21 06:52:00,64.0,64.0,30.08,North,10,6.0,11.0,100,99.99,,,-99.99,,2013-04-21 10:52:00,
2013-04-21 07:02:00,64.0,64.0,30.09,North,3,3.0,6.0,100,99.99,,,-99.99,,2013-04-21 11:02:00,
2013-04-21 07:12:00,64.0,64.0,30.09,North,3,3.0,6.0,100,99.99,,,-99.99,,2013-04-21 11:12:00,
2013-04-21 07:22:00,64.0,64.0,30.09,North,353,3.0,6.0,100,99.99,,,-99.99,,2013-04-21 11:22:00,
2013-04-21 07:34:00,64.0,64.0,30.09,North,357,3.0,6.0,100,99.99,,,-99.99,,2013-04-21 11:34:00,
2013-04-21 07:42:00,64.0,64.0,30.10,North,4,4.0,8.0,100,99.99,,,-99.99,,2013-04-21 11:42:00,
2013-04-21 07:52:00,64.0,64.0,30.10,North,4,4.0,8.0,100,99.99,,,-99.99,,2013-04-21 11:52:00,
2013-04-21 08:02:00,65.0,65.0,30.11,NE,55,5.0,8.0,100,99.99,,,-99.99,,2013-04-21 12:02:00,
2013-04-21 08:12:00,65.0,65.0,30.11,NE,48,5.0,9.0,100,99.99,,,-99.99,,2013-04-21 12:12:00,
2013-04-21 08:22:00,65.0,65.0,30.11,NE,48,5.0,9.0,100,99.99,,,-99.99,,2013-04-21 12:22:00,
2013-04-21 08:32:00,66.0,66.0,30.11,North,7,5.0,9.0,100,99.99,,,-99.99,,2013-04-21 12:32:00,
2013-04-21 08:42:00,66.0,66.0,30.11,North,7,5.0,9.0,100,99.99,,,-99.99,,2013-04-21 12:42:00,
2013-04-21 08:52:00,66.0,66.0,30.11,North,359,4.0,7.0,100,99.99,,,-99.99,,2013-04-21 12:52:00,
2013-04-21 09:01:00,67.0,67.0,30.10,NE,49,4.0,8.0,100,99.99,,,-99.99,,2013-04-21 13:01:00,
2013-04-21 09:12:00,68.0,68.0,30.11,NE,37,7.0,12.0,100,99.99,,,-99.99,,2013-04-21 13:12:00,
2013-04-21 09:21:00,68.0,68.0,30.11,NE,37,7.0,12.0,100,99.99,,,-99.99,,2013-04-21 13:21:00,
2013-04-21 09:32:00,68.0,68.0,30.11,NE,48,6.0,9.0,100,99.99,,,-99.99,,2013-04-21 13:32:00,
2013-04-21 09:42:00,68.0,68.0,30.11,NE,48,6.0,9.0,100,99.99,,,-99.99,,2013-04-21 13:42:00,
2013-04-21 09:52:00,69.0,69.0,30.11,ENE,62,3.0,7.0,99,99.99,,,-99.99,,2013-04-21 13:52:00,
2013-04-21 10:02:00,70.0,69.0,30.11,North,1,4.0,7.0,97,99.99,,,-99.99,,2013-04-21 14:02:00,
2013-04-21 10:11:00,70.0,69.0,30.12,NNE,23,5.0,8.0,97,99.99,,,-99.99,,2013-04-21 14:11:00,
2013-04-21 10:21:00,70.0,69.0,30.12,NNE,23,5.0,8.0,97,99.99,,,-99.99,,2013-04-21 14:21:00,
2013-04-21 10:32:00,71.0,70.0,30.12,NNE,25,3.0,7.0,96,99.99,,,-99.99,,2013-04-21 14:32:00,
2013-04-21 10:42:00,71.0,70.0,30.12,NNE,25,3.0,7.0,96,99.99,,,-99.99,,2013-04-21 14:42:00,
2013-04-21 10:52:00,72.0,69.0,30.12,NNE,32,4.0,7.0,90,99.99,,,-99.99,,2013-04-21 14:52:00,
2013-04-21 11:02:00,74.0,70.0,30.12,ENE,62,3.0,8.0,86,99.99,,,-99.99,,2013-04-21 15:02:00,
2013-04-21 11:11:00,74.0,70.0,30.12,ENE,62,3.0,8.0,86,99.99,,,-99.99,,2013-04-21 15:11:00,
2013-04-21 11:22:00,76.0,69.0,30.11,ESE,114,4.0,9.0,80,99.99,,,-99.99,,2013-04-21 15:22:00,
2013-04-21 11:33:00,76.0,68.0,30.11,NE,53,5.0,11.0,77,99.99,,,-99.99,,2013-04-21 15:33:00,
2013-04-21 11:43:00,76.0,68.0,30.11,NE,53,5.0,11.0,77,99.99,,,-99.99,,2013-04-21 15:43:00,
2013-04-21 11:53:00,78.0,69.0,30.11,NE,52,4.0,8.0,75,99.99,,,-99.99,,2013-04-21 15:53:00,
2013-04-21 12:03:00,79.0,69.0,30.11,ENE,68,3.0,6.0,72,99.99,,,-99.99,,2013-04-21 16:03:00,
2013-04-21 12:12:00,79.0,68.0,30.11,East,101,5.0,10.0,69,99.99,,,-99.99,,2013-04-21 16:12:00,
2013-04-21 12:23:00,79.0,68.0,30.11,East,101,5.0,10.0,69,99.99,,,-99.99,,2013-04-21 16:23:00,
2013-04-21 12:33:00,80.0,69.0,30.11,ESE,111,4.0,11.0,69,99.99,,,-99.99,,2013-04-21 16:33:00,
2013-04-21 12:42:00,80.0,69.0,30.11,ESE,111,4.0,11.0,69,99.99,,,-99.99,,2013-04-21 16:42:00,
2013-04-21 12:53:00,81.0,69.0,30.10,NE,56,6.0,10.0,68,99.99,,,-99.99,,2013-04-21 16:53:00,
2013-04-21 13:02:00,82.0,69.0,30.09,East,101,4.0,9.0,64,99.99,,,-99.99,,2013-04-21 17:02:00,
2013-04-21 13:12:00,82.0,68.0,30.09,East,93,5.0,11.0,62,99.99,,,-99.99,,2013-04-21 17:12:00,
2013-04-21 13:23:00,82.0,68.0,30.09,East,93,5.0,11.0,62,99.99,,,-99.99,,2013-04-21 17:23:00,
2013-04-21 13:32:00,81.0,67.0,30.09,East,97,5.0,11.0,63,99.99,,,-99.99,,2013-04-21 17:32:00,
2013-04-21 13:42:00,81.0,67.0,30.09,East,97,5.0,11.0,63,99.99,,,-99.99,,2013-04-21 17:42:00,
2013-04-21 13:52:00,81.0,68.0,30.08,East,97,4.0,8.0,64,99.99,,,-99.99,,2013-04-21 17:52:00,
2013-04-21 14:02:00,81.0,68.0,30.07,East,97,4.0,8.0,65,99.99,,,-99.99,,2013-04-21 18:02:00,
2013-04-21 14:11:00,81.0,68.0,30.07,East,97,4.0,8.0,65,99.99,,,-99.99,,2013-04-21 18:11:00,
2013-04-21 14:22:00,80.0,67.0,30.07,ESE,105,2.0,6.0,65,99.99,,,-99.99,,2013-04-21 18:22:00,
2013-04-21 14:32:00,81.0,69.0,30.06,SE,136,0.0,2.0,66,99.99,,,-99.99,,2013-04-21 18:32:00,
2013-04-21 14:42:00,81.0,69.0,30.06,SE,136,0.0,2.0,66,99.99,,,-99.99,,2013-04-21 18:42:00,
2013-04-21 14:52:00,82.0,69.0,30.06,North,0,0.0,0.0,64,99.99,,,-99.99,,2013-04-21 18:52:00,
2013-04-21 15:02:00,82.0,68.0,30.05,ENE,62,3.0,5.0,63,99.99,,,-99.99,,2013-04-21 19:02:00,
2013-04-21 15:12:00,82.0,68.0,30.05,ENE,62,3.0,5.0,63,99.99,,,-99.99,,2013-04-21 19:12:00,
2013-04-21 15:22:00,82.0,68.0,30.04,North,6,4.0,5.0,62,99.99,,,-99.99,,2013-04-21 19:22:00,
2013-04-21 15:32:00,83.0,68.0,30.03,NNW,347,2.0,7.0,60,99.99,,,-99.99,,2013-04-21 19:32:00,
2013-04-21 15:42:00,83.0,68.0,30.03,NNW,347,2.0,7.0,60,99.99,,,-99.99,,2013-04-21 19:42:00,
2013-04-21 15:52:00,84.0,69.0,30.02,ENE,62,5.0,10.0,61,99.99,,,-99.99,,2013-04-21 19:52:00,
2013-04-21 16:02:00,83.0,68.0,30.02,SSE,158,7.0,16.0,61,99.99,,,-99.99,,2013-04-21 20:02:00,
2013-04-21 16:11:00,79.0,67.0,30.01,South,186,10.0,17.0,66,99.99,,,-99.99,,2013-04-21 20:11:00,
2013-04-21 16:22:00,79.0,67.0,30.01,South,186,10.0,17.0,66,99.99,,,-99.99,,2013-04-21 20:22:00,
2013-04-21 16:32:00,78.0,66.0,30.01,South,176,5.0,10.0,66,99.99,,,-99.99,,2013-04-21 20:32:00,
2013-04-21 16:42:00,78.0,66.0,30.01,South,176,5.0,10.0,66,99.99,,,-99.99,,2013-04-21 20:42:00,
2013-04-21 16:52:00,77.0,66.0,30.02,East,98,4.0,7.0,69,99.99,,,-99.99,,2013-04-21 20:52:00,
2013-04-21 17:02:00,75.0,67.0,30.02,ENE,70,4.0,8.0,75,99.99,,,-99.99,,2013-04-21 21:02:00,
2013-04-21 17:12:00,75.0,68.0,30.00,North,8,2.0,6.0,78,99.99,,,-99.99,,2013-04-21 21:12:00,
2013-04-21 17:22:00,75.0,68.0,30.00,North,8,2.0,6.0,78,99.99,,,-99.99,,2013-04-21 21:22:00,
2013-04-21 17:33:00,74.0,67.0,30.01,NE,55,1.0,7.0,80,99.99,,,-99.99,,2013-04-21 21:33:00,
2013-04-21 17:43:00,74.0,67.0,30.01,NE,55,1.0,7.0,80,99.99,,,-99.99,,2013-04-21 21:43:00,
2013-04-21 17:53:00,75.0,67.0,30.02,ENE,68,4.0,7.0,77,99.99,,,-99.99,,2013-04-21 21:53:00,
2013-04-21 18:02:00,74.0,67.0,30.01,NE,39,5.0,10.0,78,99.99,,,-99.99,,2013-04-21 22:02:00,
2013-04-21 18:12:00,74.0,67.0,30.02,ENE,68,2.0,6.0,78,99.99,,,-99.99,,2013-04-21 22:12:00,
2013-04-21 18:22:00,74.0,67.0,30.02,ENE,68,2.0,6.0,78,99.99,,,-99.99,,2013-04-21 22:22:00,
2013-04-21 18:33:00,75.0,68.0,30.02,NNE,21,2.0,6.0,79,99.99,,,-99.99,,2013-04-21 22:33:00,
2013-04-21 18:43:00,75.0,68.0,30.02,NNE,21,2.0,6.0,79,99.99,,,-99.99,,2013-04-21 22:43:00,
2013-04-21 18:53:00,75.0,68.0,30.03,ESE,115,1.0,6.0,78,99.99,,,-99.99,,2013-04-21 22:53:00,
2013-04-21 19:02:00,75.0,67.0,30.04,East,101,1.0,6.0,76,99.99,,,-99.99,,2013-04-21 23:02:00,
2013-04-21 19:12:00,75.0,67.0,30.04,East,101,1.0,6.0,76,99.99,,,-99.99,,2013-04-21 23:12:00,
2013-04-21 19:22:00,75.0,67.0,30.04,North,8,4.0,5.0,77,99.99,,,-99.99,,2013-04-21 23:22:00,
2013-04-21 19:32:00,74.0,70.0,30.05,North,10,5.0,7.0,86,99.99,,,-99.99,,2013-04-21 23:32:00,
2013-04-21 19:42:00,74.0,70.0,30.05,North,10,5.0,7.0,86,99.99,,,-99.99,,2013-04-21 23:42:00,
2013-04-21 19:52:00,72.0,71.0,30.05,ESE,103,2.0,6.0,98,99.99,,,-99.99,,2013-04-21 23:52:00,
2013-04-21 20:01:00,71.0,71.0,30.06,NE,49,3.0,6.0,100,99.99,,,-99.99,,2013-04-22 00:01:00,
2013-04-21 20:11:00,71.0,71.0,30.06,NE,49,3.0,6.0,100,99.99,,,-99.99,,2013-04-22 00:11:00,
2013-04-21 20:22:00,71.0,71.0,30.07,NNE,15,3.0,6.0,100,99.99,,,-99.99,,2013-04-22 00:22:00,
2013-04-21 20:32:00,71.0,71.0,30.05,NE,56,1.0,4.0,100,99.99,,,-99.99,,2013-04-22 00:32:00,
2013-04-21 20:42:00,71.0,71.0,30.05,NE,56,1.0,4.0,100,99.99,,,-99.99,,2013-04-22 00:42:00,
2013-04-21 20:52:00,71.0,71.0,30.06,NE,48,1.0,4.0,100,99.99,,,-99.99,,2013-04-22 00:52:00,
2013-04-21 21:01:00,70.0,70.0,30.07,NE,52,1.0,4.0,100,99.99,,,-99.99,,2013-04-22 01:01:00,
2013-04-21 21:12:00,70.0,70.0,30.07,NE,52,1.0,4.0,100,99.99,,,-99.99,,2013-04-22 01:12:00,
2013-04-21 21:21:00,70.0,70.0,30.06,NE,55,2.0,4.0,100,99.99,,,-99.99,,2013-04-22 01:21:00,
2013-04-21 21:32:00,70.0,70.0,30.06,NE,56,2.0,4.0,100,99.99,,,-99.99,,2013-04-22 01:32:00,
2013-04-21 21:42:00,70.0,70.0,30.06,NE,56,2.0,4.0,100,99.99,,,-99.99,,2013-04-22 01:42:00,
2013-04-21 21:52:00,70.0,70.0,30.08,North,0,0.0,0.0,100,99.99,,,-99.99,,2013-04-22 01:52:00,
2013-04-21 22:02:00,70.0,70.0,30.09,North,0,0.0,0.0,100,99.99,,,-99.99,,2013-04-22 02:02:00,
2013-04-21 22:11:00,70.0,70.0,30.09,North,0,0.0,0.0,100,99.99,,,-99.99,,2013-04-22 02:11:00,
2013-04-21 22:21:00,70.0,70.0,30.09,North,0,0.0,0.0,100,99.99,,,-99.99,,2013-04-22 02:21:00,
2013-04-21 22:32:00,70.0,70.0,30.10,North,0,0.0,0.0,100,99.99,,,-99.99,,2013-04-22 02:32:00,
2013-04-21 22:42:00,70.0,70.0,30.10,North,0,0.0,0.0,100,99.99,,,-99.99,,2013-04-22 02:42:00,
2013-04-21 22:52:00,70.0,70.0,30.09,North,0,0.0,0.0,100,99.99,,,-99.99,,2013-04-22 02:52:00,
2013-04-21 23:02:00,70.0,70.0,30.09,North,0,0.0,0.0,100,99.99,,,-99.99,,2013-04-22 03:02:00,
2013-04-21 23:11:00,70.0,70.0,30.09,North,0,0.0,0.0,100,99.99,,,-99.99,,2013-04-22 03:11:00,
2013-04-21 23:22:00,70.0,70.0,30.07,North,0,0.0,0.0,100,99.99,,,-99.99,,2013-04-22 03:22:00,
2013-04-21 23:33:00,70.0,70.0,30.07,North,0,0.0,0.0,100,99.99,,,-99.99,,2013-04-22 03:33:00,
2013-04-21 23:43:00,70.0,70.0,30.07,North,0,0.0,0.0,100,99.99,,,-99.99,,2013-04-22 03:43:00,
2013-04-21 23:53:00,70.0,70.0,30.07,WSW,257,1.0,2.0,100,99.99,,,-99.99,,2013-04-22 03:53:00,